Wind_Speed
10 10 11 11 11 12 12 12 12 11 11 12 11 11 11 11 11 10 10 10 10 11 11 11 12 12 12 13 13 14 14 14 14 14 14 13 14 14 14 13 13 14 13 14
11 12 12 12 12 13 13 13 13 12 12 12 12 12 12 12 12 12 11 11 11 11 12 13 13 13 13 14 14 15 15 15 15 15 15 14 14 14 15 14 14 14 15 15
12 12 11 11 12 13 13 14 14 14 12 13 13 12 12 12 12 12 12 12 12 12 13 14 14 14 14 14 15 16 16 16 16 15 15 15 15 15 15 15 15 15 15 15
12 12 12 12 12 13 13 14 15 15 14 13 13 13 11 11 12 12 12 12 12 13 14 14 15 15 16 16 16 17 17 17 17 17 17 17 16 16 16 16 16 16 16 16
12 13 13 13 12 13 14 14 15 15 16 15 15 14 12 12 12 12 12 13 14 15 15 16 16 16 17 17 17 17 17 18 18 18 19 19 18 18 17 17 17 17 16 15
13 13 13 13 13 13 14 14 14 15 16 17 15 15 13 13 13 14 14 15 15 15 16 17 17 17 18 18 18 18 18 18 19 19 20 20 19 19 18 18 18 18 18 17
13 13 14 14 14 13 14 14 15 15 15 16 16 16 15 14 14 14 15 16 17 17 17 17 18 18 18 18 19 19 19 19 19 20 20 20 20 20 19 19 19 19 19 19
14 13 13 14 14 14 14 15 16 16 16 16 16 17 16 16 16 16 16 17 17 18 18 18 18 18 18 18 19 19 20 21 21 21 21 21 21 21 20 20 20 20 20 20
14 13 13 14 14 15 15 16 17 18 18 18 18 18 17 16 17 17 16 17 18 18 19 19 18 18 19 19 20 20 21 21 21 21 21 22 22 22 22 21 21 21 21 21
14 14 13 14 14 15 17 17 18 19 19 20 20 19 18 18 17 17 17 17 18 18 19 19 19 19 19 20 20 21 22 22 23 23 22 22 23 22 23 23 22 22 23 23
16 16 14 14 15 16 17 18 19 20 20 20 20 20 18 18 18 18 18 18 18 19 20 21 21 21 21 22 23 23 23 24 24 24 23 23 23 24 24 24 24 24 24 24
17 17 17 16 16 16 17 17 19 19 20 20 20 19 17 19 20 20 20 20 20 20 21 22 22 23 23 23 24 24 25 25 25 24 24 24 24 24 25 25 26 26 26 25
18 18 19 18 18 17 17 18 19 20 21 21 21 20 18 19 20 21 21 21 21 22 22 22 23 23 24 24 25 25 25 25 25 25 26 26 26 26 26 27 27 27 27 27
19 20 20 20 20 19 18 18 19 20 21 22 22 21 20 20 21 22 23 23 23 24 24 24 23 24 24 25 25 26 25 25 26 26 26 26 27 27 28 28 28 28 29 29
20 20 21 22 22 21 21 20 20 21 21 22 21 22 22 22 22 23 24 24 25 25 25 25 24 24 24 25 26 26 26 26 26 27 27 27 27 28 28 29 29 30 30 31
20 21 22 22 23 23 22 22 23 22 23 23 23 23 24 24 23 24 24 25 26 26 26 25 26 26 26 26 26 26 27 27 28 28 27 28 28 28 29 29 30 30 31 31
21 22 23 23 23 24 23 22 23 23 24 25 25 25 25 24 23 24 25 26 27 26 26 26 27 27 28 28 27 27 28 28 28 28 28 28 29 29 30 30 30 31 32 31
21 22 23 23 23 25 22 22 22 23 24 24 24 24 25 25 25 24 25 26 27 26 26 27 27 28 28 29 29 28 28 29 29 29 29 29 29 29 29 30 30 31 32 32
22 22 22 23 24 23 22 22 22 23 24 24 24 24 25 25 25 26 26 27 27 27 26 27 27 28 29 29 29 29 29 29 29 29 29 30 30 30 30 30 30 31 32 33
22 22 22 23 23 23 22 23 22 23 23 23 25 26 26 26 26 26 27 27 27 28 28 27 28 29 29 29 29 29 29 28 28 28 29 30 30 30 30 31 31 32 32 33
22 23 23 23 23 23 23 23 23 23 23 24 25 26 26 27 27 27 27 28 28 28 29 29 29 29 29 28 28 28 28 28 28 28 29 29 30 30 31 31 31 31 33 33
22 23 23 23 24 23 22 23 24 24 24 24 25 25 25 26 27 26 26 27 28 28 29 29 29 30 30 29 29 29 29 29 29 29 29 29 29 30 30 30 30 30 31 31
23 23 23 23 23 23 23 23 24 25 25 25 25 25 25 25 26 26 26 27 28 29 29 30 30 29 29 29 30 29 30 30 30 30 29 29 30 30 30 30 31 31 30 30
22 23 24 24 23 23 23 23 24 25 25 24 25 25 26 26 26 25 26 27 28 28 29 30 30 30 30 30 30 31 31 31 31 31 30 30 29 30 30 31 31 31 31 31
23 23 24 24 24 24 24 24 24 24 24 24 24 24 25 25 26 27 27 26 27 28 29 29 29 29 28 29 29 29 30 31 31 31 32 31 31 31 31 31 31 31 31 32
23 24 24 23 24 25 24 24 24 23 23 24 24 24 24 24 25 26 26 27 27 28 29 29 29 29 29 29 29 29 29 30 31 32 32 31 31 31 31 30 30 30 31 31
Wind_Direction
259 259 260 262 263 259 257 256 253 248 251 256 260 265 269 273 273 272 274 275 274 274 278 280 281 280 279 279 276 276 278 277 276 275 276 277 276 275 277 278 281 282 282 279
262 264 265 263 263 260 257 257 255 252 253 255 261 266 268 270 272 273 274 274 275 276 277 278 281 282 279 278 278 276 276 276 276 274 273 274 274 272 272 273 278 280 281 282
267 267 266 264 266 262 259 259 259 255 254 259 261 264 265 268 270 271 273 274 275 277 278 279 279 280 280 280 280 279 277 276 276 275 274 273 273 273 272 273 274 276 278 279
265 265 266 266 265 262 260 261 262 259 256 257 266 266 264 269 271 274 278 278 278 278 278 279 278 278 278 279 280 281 279 277 275 275 274 274 274 273 273 273 273 274 275 275
268 269 268 268 266 262 262 262 260 258 257 260 264 268 266 267 271 275 278 281 283 282 280 280 278 277 276 277 280 281 281 278 275 273 273 273 272 271 272 273 273 273 273 276
267 270 269 268 265 262 260 259 258 258 259 261 265 271 272 269 274 278 279 281 283 285 284 282 280 275 276 277 278 278 278 279 276 273 271 270 270 270 270 270 271 272 272 274
265 268 268 266 261 259 257 259 259 258 260 263 266 270 274 276 280 282 282 281 281 284 285 283 281 277 275 276 276 277 278 279 278 277 274 272 270 270 270 270 269 270 271 271
268 267 266 263 260 258 258 259 259 258 260 264 265 270 273 276 279 280 281 281 280 281 282 283 279 275 275 274 275 276 276 277 279 279 276 272 271 271 271 270 269 270 271 271
270 269 267 264 262 262 264 263 263 261 261 264 269 273 272 274 278 280 281 281 281 280 282 282 281 277 276 275 275 276 277 276 278 280 278 274 271 271 271 270 269 269 269 269
271 270 267 267 262 262 264 265 263 261 262 266 269 271 275 275 277 280 281 282 282 283 283 283 281 278 275 275 275 275 276 276 277 278 278 275 272 271 270 270 270 268 268 268
271 271 270 267 264 267 266 261 261 262 264 268 270 271 273 274 276 279 281 281 283 283 284 284 282 279 277 277 277 276 276 276 275 276 275 273 272 270 269 269 269 270 269 267
270 271 271 268 266 266 266 262 262 262 263 266 269 272 273 273 276 279 280 282 283 283 283 283 282 281 280 279 279 279 278 276 275 273 272 272 271 270 270 270 270 270 270 269
270 270 272 270 269 268 265 263 262 264 265 267 270 272 275 274 274 277 280 281 282 283 284 284 283 282 282 282 280 280 279 277 274 272 272 271 270 270 270 271 271 269 269 269
270 271 270 271 272 269 266 263 264 265 265 269 271 272 274 275 273 276 280 282 283 285 286 285 284 284 283 282 280 279 278 276 274 274 273 272 270 270 270 271 270 270 270 269
268 268 269 270 271 271 269 267 266 265 266 268 271 274 276 277 277 277 278 280 282 283 285 285 284 284 283 282 281 279 277 276 275 275 274 272 271 269 269 269 269 271 271 270
269 268 269 270 271 272 271 268 267 267 266 268 271 275 278 279 279 278 277 278 280 281 282 283 284 284 283 282 281 279 277 277 278 277 275 273 272 271 270 270 270 270 271 271
270 270 270 271 272 271 272 274 271 270 269 269 271 275 276 278 281 279 278 277 278 280 282 282 282 282 282 282 280 279 278 277 278 278 277 274 273 273 272 271 271 271 270 272
273 273 273 272 272 271 275 274 273 271 270 270 271 273 276 280 281 281 279 278 279 281 281 281 281 280 281 281 281 280 279 278 277 277 277 276 274 274 274 273 272 271 270 271
273 274 274 273 272 273 272 274 273 273 271 272 273 274 275 278 281 280 279 279 280 280 281 279 281 282 282 282 282 282 281 280 279 277 277 276 275 274 273 274 273 271 271 271
272 273 275 274 275 275 275 274 274 276 275 275 274 275 275 276 281 281 279 280 281 281 282 283 283 284 284 283 283 282 281 280 279 278 277 277 276 276 275 274 274 272 272 271
272 273 275 276 276 276 276 274 274 275 277 277 277 277 277 277 280 282 281 281 282 283 283 285 284 284 283 282 281 281 282 281 280 280 279 278 277 277 277 276 275 274 273 273
273 275 275 276 277 279 279 276 274 276 277 279 279 278 278 279 281 282 282 284 284 284 284 284 284 283 282 281 280 281 280 281 282 280 280 279 279 278 277 277 277 276 274 272
273 274 275 275 278 280 279 279 277 276 278 280 279 279 280 280 281 281 283 285 285 284 284 285 285 284 282 282 282 280 280 280 281 279 280 279 278 278 276 277 278 278 276 272
273 272 272 273 275 276 278 279 278 276 278 281 281 280 280 280 281 282 284 286 286 287 287 287 286 284 282 281 281 281 280 280 280 280 280 280 280 278 278 278 279 278 277 273
276 273 272 273 274 275 277 279 279 280 279 279 280 281 281 279 280 282 285 286 287 288 289 288 288 287 284 282 281 280 281 282 282 281 280 281 281 280 279 278 278 278 278 276
274 273 273 272 274 275 276 278 278 279 280 280 282 283 283 282 282 284 285 288 289 288 289 289 289 288 286 285 284 283 283 283 284 284 282 281 280 280 280 278 277 277 278 278
Height
5849 5850 5849 5849 5849 5848 5848 5848 5849 5850 5850 5850 5850 5851 5851 5851 5852 5852 5852 5852 5852 5852 5851 5850 5850 5849 5849 5849 5848 5848 5848 5847 5847 5847 5846 5846 5845 5845 5844 5844 5843 5843 5842 5842
5847 5846 5846 5845 5845 5844 5844 5844 5845 5846 5846 5846 5846 5847 5848 5848 5848 5848 5848 5848 5849 5848 5848 5847 5846 5846 5846 5845 5845 5844 5844 5844 5843 5843 5843 5842 5841 5841 5841 5840 5840 5839 5839 5838
5843 5843 5842 5841 5841 5840 5840 5840 5841 5842 5843 5843 5843 5844 5844 5844 5844 5844 5845 5845 5845 5844 5844 5843 5843 5842 5842 5841 5841 5840 5840 5840 5839 5839 5839 5838 5838 5837 5837 5837 5836 5836 5835 5834
5839 5838 5838 5837 5837 5836 5836 5837 5837 5838 5839 5839 5840 5840 5841 5840 5840 5840 5841 5841 5840 5840 5840 5839 5839 5838 5837 5837 5837 5836 5836 5835 5835 5835 5834 5834 5834 5834 5833 5833 5832 5832 5831 5831
5835 5834 5833 5833 5833 5832 5832 5833 5833 5834 5835 5835 5835 5836 5838 5837 5837 5837 5837 5836 5836 5836 5835 5835 5834 5834 5833 5833 5832 5831 5831 5831 5830 5830 5830 5829 5829 5829 5828 5828 5828 5827 5827 5826
5831 5830 5830 5829 5829 5828 5829 5829 5829 5830 5831 5831 5832 5832 5833 5833 5833 5833 5833 5832 5832 5831 5831 5830 5829 5829 5828 5828 5827 5827 5826 5825 5825 5825 5824 5824 5824 5824 5823 5823 5823 5822 5822 5822
5827 5826 5826 5825 5825 5825 5825 5826 5826 5826 5826 5827 5828 5827 5829 5828 5828 5828 5828 5827 5827 5826 5826 5825 5824 5823 5823 5822 5822 5821 5821 5820 5819 5819 5818 5818 5818 5818 5818 5818 5818 5817 5817 5817
5822 5823 5822 5822 5822 5822 5822 5822 5823 5823 5822 5822 5822 5822 5824 5823 5823 5823 5823 5822 5822 5821 5820 5820 5819 5818 5817 5817 5816 5816 5815 5814 5814 5813 5812 5812 5812 5812 5812 5812 5811 5811 5811 5811
5818 5818 5818 5818 5818 5818 5817 5818 5818 5818 5817 5817 5817 5818 5818 5818 5818 5818 5818 5817 5816 5816 5815 5814 5813 5813 5812 5811 5811 5810 5809 5808 5808 5807 5806 5806 5806 5806 5805 5805 5805 5805 5805 5805
5813 5814 5814 5814 5814 5814 5814 5814 5814 5812 5812 5812 5812 5812 5813 5813 5813 5813 5813 5812 5811 5810 5809 5808 5807 5807 5806 5805 5804 5804 5803 5802 5802 5801 5800 5800 5799 5799 5799 5799 5799 5799 5799 5798
5809 5810 5810 5810 5810 5809 5809 5809 5808 5807 5807 5807 5806 5809 5808 5808 5807 5807 5807 5807 5806 5805 5804 5802 5801 5800 5799 5798 5798 5797 5796 5795 5795 5794 5794 5793 5793 5793 5793 5792 5792 5792 5792 5791
5805 5805 5805 5805 5805 5804 5804 5803 5803 5803 5802 5801 5801 5804 5802 5801 5801 5801 5801 5800 5800 5799 5798 5797 5796 5794 5793 5792 5791 5790 5789 5788 5788 5787 5787 5786 5786 5786 5785 5785 5785 5785 5784 5784
5800 5800 5800 5800 5802 5800 5799 5798 5797 5797 5796 5796 5795 5798 5796 5796 5795 5794 5794 5794 5793 5792 5792 5790 5789 5788 5786 5785 5783 5782 5781 5781 5780 5780 5779 5779 5778 5778 5778 5778 5778 5777 5777 5777
5795 5795 5795 5795 5794 5793 5793 5792 5791 5791 5791 5790 5790 5791 5791 5790 5789 5788 5787 5787 5786 5785 5784 5783 5782 5780 5779 5777 5776 5775 5774 5773 5772 5771 5771 5771 5770 5770 5770 5769 5769 5769 5769 5769
5789 5788 5788 5788 5787 5787 5786 5786 5786 5785 5785 5785 5785 5784 5784 5783 5782 5782 5781 5780 5779 5778 5777 5775 5774 5773 5772 5770 5768 5767 5766 5764 5764 5763 5762 5762 5762 5761 5761 5760 5760 5760 5760 5760
5782 5782 5782 5781 5781 5780 5779 5780 5779 5779 5779 5778 5778 5778 5777 5777 5776 5774 5773 5773 5771 5770 5769 5768 5766 5765 5763 5762 5760 5759 5757 5756 5755 5754 5754 5753 5753 5752 5752 5751 5751 5751 5751 5751
5776 5776 5775 5774 5774 5772 5773 5774 5773 5772 5772 5772 5771 5772 5770 5769 5768 5767 5766 5765 5763 5762 5761 5760 5758 5756 5755 5753 5752 5750 5749 5748 5747 5746 5744 5744 5743 5743 5742 5742 5741 5741 5741 5741
5770 5769 5768 5767 5767 5766 5770 5767 5766 5765 5765 5765 5765 5764 5763 5762 5761 5760 5758 5757 5756 5754 5753 5752 5750 5748 5747 5745 5743 5741 5740 5739 5738 5737 5736 5734 5734 5733 5733 5732 5732 5732 5731 5731
5763 5762 5761 5761 5760 5760 5761 5760 5759 5758 5758 5758 5757 5757 5756 5755 5753 5752 5751 5749 5748 5746 5745 5743 5741 5740 5738 5736 5734 5733 5731 5730 5728 5727 5726 5725 5724 5724 5723 5723 5722 5722 5721 5721
5756 5755 5755 5754 5753 5753 5755 5753 5752 5752 5752 5751 5750 5749 5748 5747 5746 5746 5743 5742 5740 5738 5736 5735 5733 5731 5729 5727 5726 5724 5723 5721 5720 5718 5717 5716 5715 5714 5714 5713 5712 5712 5711 5711
5750 5749 5748 5747 5745 5746 5747 5746 5746 5746 5746 5744 5743 5742 5741 5740 5739 5738 5736 5734 5732 5730 5728 5726 5724 5722 5721 5719 5717 5716 5714 5712 5711 5709 5708 5707 5706 5705 5704 5703 5703 5702 5701 5701
5742 5742 5741 5740 5739 5741 5739 5738 5738 5738 5737 5736 5735 5734 5733 5732 5731 5729 5727 5726 5724 5722 5720 5718 5716 5714 5712 5710 5709 5707 5705 5704 5702 5701 5699 5698 5697 5696 5695 5693 5693 5692 5691 5691
5735 5735 5734 5734 5735 5733 5731 5731 5730 5729 5729 5728 5727 5726 5725 5724 5723 5721 5719 5717 5715 5714 5712 5710 5707 5705 5703 5702 5700 5698 5697 5695 5693 5692 5690 5689 5688 5686 5685 5685 5684 5682 5681 5681
5728 5727 5727 5726 5726 5725 5724 5723 5722 5721 5721 5720 5719 5718 5717 5716 5714 5713 5711 5709 5707 5705 5703 5701 5698 5696 5695 5693 5691 5689 5688 5686 5684 5683 5681 5680 5678 5677 5676 5675 5674 5673 5672 5671
5721 5719 5719 5718 5719 5718 5717 5716 5714 5714 5713 5712 5711 5710 5709 5708 5706 5705 5703 5701 5699 5697 5694 5692 5690 5688 5686 5684 5682 5680 5679 5677 5675 5673 5672 5670 5669 5668 5667 5666 5664 5663 5662 5661
5713 5712 5712 5712 5711 5710 5709 5708 5707 5706 5706 5705 5704 5703 5701 5700 5698 5697 5695 5693 5691 5689 5686 5684 5682 5679 5677 5675 5673 5671 5670 5668 5666 5664 5662 5661 5659 5658 5657 5656 5655 5653 5652 5651